Home   Weather   Stamford   Past weeks

Flag for USA Past Weather in Stamford, Connecticut, USA — Yesterday and Last 2 Weeks

Now
70 °F

Scattered clouds.


Feels Like: 75 °F
Forecast: 59 / 74 °F
Wind: No wind

Location: Westchester County Airport

Current Time: Sep 27, 2016 at 1:25:56 PM

Latest Report: Sep 27, 2016 at 12:56 PM


Visibility: 10 mi

Pressure: 29.90 "Hg

Humidity: 64%

Dew Point: 57 °F

Location of StamfordLocation

Past Weather in Stamford — Graph

°F

Stamford Temperature Yesterday

Maximum temperature yesterday: 70 °F (at 2:56 PM)
Minimum temperature yesterday: 49 °F (at 12:56 AM)
Average temperature yesterday: 61 °F

High & Low Weather Summary for the Past Weeks

 TemperatureHumidityPressure
High88 °F (Sep 14, 2:56 PM)97% (Sep 19, 3:56 AM)30.34 "Hg (Sep 19, 3:56 AM)
Low45 °F (Sep 25, 5:56 AM)24% (Sep 25, 2:56 PM)29.88 "Hg (Sep 27, 4:56 AM)
Average67 °F68%30.12 "Hg
* Reported Sep 12 11:56 AM — Sep 27 11:56 AM, Stamford, Weather by CustomWeather, © 2016

Note: Actual official high and low records may vary slightly from our data, if they occured in-between our weather recording intervals... More about our weather records

Advertising

Stamford Weather History for the Previous 24 Hours

Scroll right to see more
 ConditionsComfort  
Time TempWeatherWind HumidityBarometerVisibility
11:56 AM
Tue, Sep 27
68 °FScattered clouds.5 mph73%29.92 "Hg10 mi
10:56 AM66 °FScattered clouds.7 mph81%29.93 "Hg10 mi
9:56 AM65 °FScattered clouds.8 mph87%29.92 "Hg10 mi
8:56 AM64 °FScattered clouds.No wind94%29.91 "Hg10 mi
7:56 AM63 °FBroken clouds.3 mph93%29.90 "Hg10 mi
6:56 AM63 °FBroken clouds.7 mph93%29.90 "Hg10 mi
5:56 AM64 °FPassing clouds.9 mph94%29.89 "Hg10 mi
4:56 AM64 °FLight rain. Fog.5 mph97%29.88 "Hg5 mi
3:56 AM65 °FLight rain. Fog.5 mph94%29.89 "Hg2 mi
2:56 AM66 °FLight rain. Fog.3 mph87%29.91 "Hg2 mi
1:56 AM68 °FPartly cloudy.10 mph78%29.93 "Hg10 mi
12:56 AM66 °FPartly cloudy.6 mph81%29.94 "Hg10 mi
11:56 PM
Mon, Sep 26
66 °FPartly cloudy.8 mph73%29.98 "Hg10 mi
10:56 PM66 °FOvercast.9 mph68%30.00 "Hg10 mi
9:56 PM66 °FOvercast.5 mph65%30.04 "Hg10 mi
8:56 PM65 °FOvercast.8 mph61%30.05 "Hg10 mi
7:56 PM65 °FOvercast.7 mph56%30.05 "Hg10 mi
6:56 PM65 °FPassing clouds.9 mph56%30.05 "Hg10 mi
5:56 PM66 °FPartly sunny.10 mph56%30.06 "Hg10 mi
4:56 PM69 °FPassing clouds.12 mph49%30.06 "Hg10 mi
3:56 PM70 °FScattered clouds.8 mph47%30.08 "Hg10 mi
2:56 PM70 °FScattered clouds.9 mph46%30.10 "Hg10 mi
1:56 PM68 °FPartly sunny.7 mph45%30.11 "Hg10 mi
Weather by CustomWeather, © 2016

See weather overviewHow to use our weather pages